Flag for U.S.A. Weather past 2 weeks in Tucson, Arizona, U.S.A.

Now
79 °F

Passing clouds.


Feels Like: 81 °F
Forecast: 79 / 97 °F
Wind: 13 mph from East

Location: Davis-Monthan Air Force Base

Current Time: Jul 28, 2014 at 9:02:23 AM

Latest Report: Jul 28, 2014 at 7:58 AM


Visibility: 10 mi

Pressure: 30.03 "Hg

Humidity: 61%

Dew point: 64 °F

Location of TucsonLocation

Historic Weather in Tucson — Graph

°F

Tucson temperature yesterday

Maximum temperature yesterday: 97 °F (at 3:04 PM)
Minimum temperature yesterday: 72 °F (at 10:58 PM)
Average temperature yesterday: 85 °F

Past Weeks' High & Low Weather Summary

 TemperatureHumidityPressure
High106 °F (Jul 24, 3:02 PM)97% (Jul 14, 1:58 AM)30.14 "Hg (Jul 14, 1:58 AM)
Low71 °F (Jul 15, 9:58 AM)11% (Jul 24, 3:58 PM)29.69 "Hg (Jul 24, 4:58 PM)
Average86 °F40%29.88 "Hg
* Reported Jul 13 7:58 AM — Jul 28 7:58 AM, Tucson, Weather by CustomWeather, © 2014

Note: Actual official high and low records may vary slightly from our data, if they occured in-between our weather recording intervals... More about our weather records

Advertising

Tucson weather history for previous 24 hours

 ConditionsComfort  
Time TempWeatherWind HumidityBarometerVisibility
7:58 AM
Jul 28
79 °FPassing clouds.13 mph61%30.03 "Hg10 mi
6:58 AM76 °FPassing clouds.14 mph69%30.01 "Hg10 mi
5:58 AM74 °FScattered clouds.13 mph72%29.99 "Hg10 mi
4:58 AM74 °FClear.6 mph74%29.97 "Hg10 mi
3:58 AM74 °FPassing clouds.8 mph78%29.96 "Hg10 mi
2:58 AM74 °FClear.13 mph77%29.96 "Hg10 mi
1:58 AM74 °FPassing clouds.12 mph72%29.96 "Hg10 mi
12:58 AM74 °FClear.14 mph79%29.98 "Hg10 mi
11:58 PM
Jul 27
75 °FClear.21 mph74%29.99 "Hg10 mi
11:00 PM73 °FThunderstorms. Passing clouds.12 mph74%30.14 "Hg10 mi
10:58 PM72 °FThunderstorms. Passing clouds.14 mph77%30.02 "Hg10 mi
9:58 PM80 °FThundershowers. Passing clouds.26 mph46%29.94 "Hg10 mi
8:58 PM82 °FPassing clouds.25 mph50%29.93 "Hg10 mi
7:58 PM92 °FOvercast.12 mph32%29.88 "Hg10 mi
6:58 PM93 °FScattered clouds.9 mph30%29.86 "Hg10 mi
5:58 PM94 °FPassing clouds.10 mph28%29.83 "Hg10 mi
4:58 PM95 °FSunny.9 mph27%29.84 "Hg10 mi
3:58 PM95 °FPassing clouds.8 mph27%29.85 "Hg10 mi
3:04 PM97 °FSunny.13 mph27%29.99 "Hg10 mi
2:58 PM96 °FSunny.10 mph27%29.85 "Hg10 mi
1:58 PM95 °FSunny.13 mph29%29.88 "Hg10 mi
12:58 PM95 °FSunny.14 mph29%29.89 "Hg10 mi
11:58 AM95 °FSunny.9 mph29%29.88 "Hg10 mi
10:58 AM92 °FScattered clouds.5 mph30%29.90 "Hg10 mi
9:58 AM91 °FPassing clouds.9 mph32%29.92 "Hg10 mi
Weather by CustomWeather, © 2014

See weather overviewHow to use our weather pages